| time (UTC) | temp C | wind direction | speed KPH | gust KPH | rain 1hr cm | rain 24hr cm | rain mn cm | humidity % | barometer mb |
| 20260509013055 | 16 | 140 | 12.9 | 24.1 | 0.00 | 0.33 | 0.20 | 79 | 1008.8 |
| 20260509011548 | 16 | 130 | 8.0 | 22.5 | 0.00 | 0.33 | 0.20 | 79 | 1008.6 |
| 20260509010044 | 16 | 129 | 8.0 | 16.1 | 0.00 | 0.33 | 0.20 | 78 | 1008.7 |
| 20260509004543 | 15 | 129 | 6.4 | 11.3 | 0.00 | 0.33 | 0.20 | 78 | 1009.2 |
| 20260509003052 | 14 | 129 | 1.6 | 4.8 | 0.08 | 0.33 | 0.20 | 77 | 1009.5 |
| 20260509001544 | 14 | 129 | 3.2 | 8.0 | 0.18 | 0.33 | 0.20 | 77 | 1009.8 |
| 20260509000048 | 14 | 0 | 0.0 | 1.6 | 0.20 | 0.33 | 0.20 | 77 | 1009.9 |
| 20260508234545 | 13 | 0 | 0.0 | 8.0 | 0.20 | 0.33 | 0.20 | 76 | 1010.3 |
| 20260508233059 | 13 | 129 | 1.6 | 4.8 | 0.15 | 0.25 | 0.13 | 75 | 1010.5 |
| 20260508231546 | 13 | 129 | 3.2 | 4.8 | 0.08 | 0.15 | 0.03 | 75 | 1010.5 |
| 20260508230054 | 13 | 129 | 0.0 | 3.2 | 0.10 | 0.10 | 0.00 | 74 | 1010.8 |
| 20260508224544 | 13 | 0 | 0.0 | 4.8 | 0.10 | 0.10 | 0.10 | 74 | 1011.0 |
| 20260508223047 | 13 | 129 | 1.6 | 6.4 | 0.08 | 0.08 | 0.08 | 73 | 1011.2 |
| 20260508221545 | 13 | 0 | 0.0 | 8.0 | 0.08 | 0.08 | 0.08 | 73 | 1011.3 |
| 20260508220045 | 14 | 129 | 8.0 | 19.3 | 0.00 | 0.00 | 0.00 | 73 | 1011.6 |
| 20260508214545 | 15 | 129 | 9.7 | 24.1 | 0.00 | 0.00 | 0.00 | 73 | 1011.6 |
| 20260508213041 | 16 | 128 | 3.2 | 16.1 | 0.00 | 0.00 | 0.00 | 73 | 1011.2 |
| 20260508211543 | 16 | 128 | 3.2 | 16.1 | 0.00 | 0.00 | 0.00 | 73 | 1011.2 |
| 20260508210044 | 16 | 128 | 6.4 | 17.7 | 0.00 | 0.00 | 0.00 | 73 | 1011.0 |
| 20260508204550 | 16 | 128 | 6.4 | 14.5 | 0.00 | 0.00 | 0.00 | 73 | 1011.1 |
| 20260508203053 | 16 | 128 | 4.8 | 11.3 | 0.00 | 0.00 | 0.00 | 73 | 1011.1 |
| 20260508201545 | 16 | 128 | 6.4 | 12.9 | 0.00 | 0.00 | 0.00 | 72 | 1010.8 |
| 20260508200105 | 16 | 128 | 6.4 | 19.3 | 0.00 | 0.00 | 0.00 | 72 | 1010.9 |
| 20260508194540 | 17 | 127 | 6.4 | 14.5 | 0.00 | 0.00 | 0.00 | 72 | 1010.8 |
| 20260508193045 | 17 | 127 | 8.0 | 17.7 | 0.00 | 0.00 | 0.00 | 71 | 1010.8 |
| 20260508191552 | 17 | 127 | 4.8 | 14.5 | 0.00 | 0.00 | 0.00 | 71 | 1010.8 |
| 20260508190046 | 17 | 127 | 8.0 | 16.1 | 0.00 | 0.00 | 0.00 | 71 | 1010.8 |
| 20260508184551 | 17 | 127 | 8.0 | 17.7 | 0.00 | 0.00 | 0.00 | 71 | 1010.7 |
| 20260508183049 | 17 | 127 | 6.4 | 14.5 | 0.00 | 0.00 | 0.00 | 71 | 1010.6 |
| 20260508181543 | 18 | 127 | 8.0 | 19.3 | 0.00 | 0.00 | 0.00 | 71 | 1010.6 |
| 20260508180046 | 18 | 126 | 11.3 | 20.9 | 0.00 | 0.00 | 0.00 | 70 | 1010.7 |
| 20260508174553 | 18 | 125 | 11.3 | 19.3 | 0.00 | 0.00 | 0.00 | 70 | 1010.8 |
| 20260508173046 | 18 | 124 | 9.7 | 17.7 | 0.00 | 0.00 | 0.00 | 70 | 1010.8 |
| 20260508171551 | 18 | 124 | 8.0 | 17.7 | 0.00 | 0.00 | 0.00 | 70 | 1010.7 |
| 20260508170052 | 18 | 124 | 9.7 | 25.7 | 0.00 | 0.00 | 0.00 | 70 | 1010.9 |
| 20260508164547 | 18 | 127 | 9.7 | 22.5 | 0.00 | 0.00 | 0.00 | 70 | 1010.9 |
| 20260508163054 | 18 | 124 | 11.3 | 19.3 | 0.00 | 0.00 | 0.00 | 71 | 1011.1 |
| 20260508161547 | 18 | 122 | 12.9 | 24.1 | 0.00 | 0.00 | 0.00 | 70 | 1010.9 |
| 20260508160050 | 18 | 119 | 8.0 | 20.9 | 0.00 | 0.00 | 0.00 | 70 | 1011.1 |
| 20260508154550 | 18 | 119 | 12.9 | 25.7 | 0.00 | 0.00 | 0.00 | 70 | 1011.2 |
| 20260508153047 | 18 | 118 | 11.3 | 20.9 | 0.00 | 0.00 | 0.00 | 70 | 1011.3 |
| 20260508151545 | 18 | 118 | 8.0 | 29.0 | 0.00 | 0.00 | 0.00 | 70 | 1011.6 |
| 20260508150043 | 18 | 121 | 8.0 | 24.1 | 0.00 | 0.00 | 0.00 | 70 | 1011.6 |
| 20260508144548 | 18 | 121 | 12.9 | 22.5 | 0.00 | 0.00 | 0.00 | 70 | 1011.9 |
| 20260508143050 | 18 | 120 | 11.3 | 24.1 | 0.00 | 0.00 | 0.00 | 71 | 1012.2 |
| 20260508141550 | 18 | 120 | 12.9 | 25.7 | 0.00 | 0.00 | 0.00 | 71 | 1012.3 |
| 20260508140055 | 18 | 122 | 16.1 | 24.1 | 0.00 | 0.00 | 0.00 | 71 | 1012.4 |
| 20260508134550 | 18 | 123 | 12.9 | 25.7 | 0.00 | 0.00 | 0.00 | 71 | 1012.3 |
| 20260508133042 | 18 | 123 | 9.7 | 22.5 | 0.00 | 0.00 | 0.00 | 71 | 1012.6 |
| 20260508131555 | 18 | 122 | 12.9 | 22.5 | 0.00 | 0.00 | 0.00 | 71 | 1012.7 |
| 20260508130103 | 18 | 127 | 12.9 | 24.1 | 0.00 | 0.00 | 0.00 | 71 | 1012.8 |
| 20260508124552 | 18 | 128 | 14.5 | 24.1 | 0.00 | 0.00 | 0.00 | 71 | 1013.0 |
| 20260508123053 | 18 | 125 | 9.7 | 22.5 | 0.00 | 0.00 | 0.00 | 71 | 1012.9 |
| 20260508121611 | 18 | 124 | 9.7 | 20.9 | 0.00 | 0.00 | 0.00 | 71 | 1013.1 |
| 20260508120054 | 17 | 158 | 14.5 | 22.5 | 0.00 | 0.00 | 0.00 | 71 | 1013.4 |
| 20260508114552 | 17 | 198 | 9.7 | 17.7 | 0.00 | 0.00 | 0.00 | 71 | 1013.4 |
| 20260508113104 | 17 | 198 | 8.0 | 17.7 | 0.00 | 0.00 | 0.00 | 71 | 1013.5 |
| 20260508111549 | 17 | 198 | 11.3 | 20.9 | 0.00 | 0.00 | 0.00 | 71 | 1013.7 |
| 20260508110047 | 17 | 198 | 8.0 | 19.3 | 0.00 | 0.00 | 0.00 | 71 | 1013.6 |
| 20260508104547 | 17 | 198 | 9.7 | 20.9 | 0.00 | 0.00 | 0.00 | 71 | 1013.6 |
| 20260508103050 | 17 | 198 | 9.7 | 17.7 | 0.00 | 0.00 | 0.00 | 71 | 1013.7 |
| 20260508101549 | 17 | 198 | 6.4 | 17.7 | 0.00 | 0.00 | 0.00 | 71 | 1013.5 |
| 20260508100044 | 17 | 198 | 6.4 | 12.9 | 0.00 | 0.00 | 0.00 | 71 | 1013.5 |
| 20260508094548 | 17 | 198 | 6.4 | 17.7 | 0.00 | 0.00 | 0.00 | 71 | 1013.4 |
| 20260508093055 | 17 | 198 | 4.8 | 12.9 | 0.00 | 0.00 | 0.00 | 71 | 1013.4 |
| 20260508091555 | 16 | 198 | 8.0 | 12.9 | 0.00 | 0.00 | 0.00 | 71 | 1013.3 |
| 20260508090059 | 16 | 198 | 6.4 | 14.5 | 0.00 | 0.00 | 0.00 | 71 | 1013.5 |
| 20260508084545 | 16 | 198 | 3.2 | 11.3 | 0.00 | 0.00 | 0.00 | 71 | 1013.6 |
| 20260508083045 | 16 | 198 | 1.6 | 11.3 | 0.00 | 0.00 | 0.00 | 71 | 1013.9 |
| 20260508081549 | 16 | 198 | 4.8 | 9.7 | 0.00 | 0.00 | 0.00 | 72 | 1013.9 |
| 20260508080051 | 16 | 198 | 1.6 | 8.0 | 0.00 | 0.00 | 0.00 | 72 | 1013.7 |
| 20260508074548 | 16 | 0 | 4.8 | 8.0 | 0.00 | 0.00 | 0.00 | 72 | 1013.6 |
| 20260508073048 | 16 | 198 | 1.6 | 4.8 | 0.00 | 0.00 | 0.00 | 73 | 1013.7 |
| 20260508071555 | 15 | 0 | 0.0 | 1.6 | 0.00 | 0.00 | 0.00 | 73 | 1013.4 |
| 20260508070056 | 14 | 0 | 0.0 | 0.0 | 0.00 | 0.00 | 0.00 | 72 | 1013.3 |
| 20260508064550 | 12 | 0 | 0.0 | 0.0 | 0.00 | 0.00 | 0.00 | 72 | 1013.2 |
| 20260508063043 | 12 | 0 | 0.0 | 0.0 | 0.00 | 0.00 | 0.00 | 71 | 1012.9 |
| 20260508061547 | 11 | 0 | 0.0 | 0.0 | 0.00 | 0.00 | 0.00 | 71 | 1012.8 |
| 20260508060052 | 11 | 0 | 0.0 | 0.0 | 0.00 | 0.00 | 0.00 | 70 | 1012.8 |
| 20260508054551 | 10 | 0 | 0.0 | 0.0 | 0.00 | 0.00 | 0.00 | 70 | 1012.5 |
| 20260508053052 | 11 | 0 | 0.0 | 0.0 | 0.00 | 0.00 | 0.00 | 69 | 1012.3 |
| 20260508051547 | 11 | 0 | 0.0 | 1.6 | 0.00 | 0.00 | 0.00 | 69 | 1012.4 |
| 20260508050047 | 11 | 198 | 1.6 | 3.2 | 0.00 | 0.00 | 0.00 | 69 | 1012.4 |
| 20260508044551 | 11 | 198 | 0.0 | 1.6 | 0.00 | 0.00 | 0.00 | 68 | 1012.4 |
| 20260508043050 | 11 | 198 | 6.4 | 8.0 | 0.00 | 0.00 | 0.00 | 68 | 1011.9 |
| 20260508041548 | 11 | 198 | 1.6 | 3.2 | 0.00 | 0.00 | 0.00 | 68 | 1012.5 |
| 20260508040048 | 12 | 198 | 1.6 | 3.2 | 0.00 | 0.00 | 0.00 | 67 | 1012.7 |
| 20260508034545 | 12 | 198 | 1.6 | 3.2 | 0.00 | 0.00 | 0.00 | 67 | 1012.5 |
| 20260508033109 | 13 | 198 | 1.6 | 1.6 | 0.00 | 0.00 | 0.00 | 67 | 1012.4 |
| 20260508031545 | 13 | 198 | 0.0 | 1.6 | 0.00 | 0.00 | 0.00 | 67 | 1012.3 |
| 20260508030101 | 13 | 0 | 0.0 | 3.2 | 0.00 | 0.00 | 0.00 | 67 | 1012.1 |
| 20260508024607 | 13 | 198 | 0.0 | 1.6 | 0.00 | 0.00 | 0.00 | 67 | 1012.0 |
| 20260508023045 | 13 | 0 | 0.0 | 3.2 | 0.00 | 0.00 | 0.00 | 67 | 1012.0 |
| 20260508021544 | 13 | 198 | 4.8 | 8.0 | 0.00 | 0.00 | 0.00 | 66 | 1011.5 |
| 20260508020103 | 13 | 198 | 1.6 | 4.8 | 0.00 | 0.00 | 0.00 | 66 | 1012.2 |
| 20260508014555 | 13 | 198 | 3.2 | 6.4 | 0.00 | 0.00 | 0.00 | 66 | 1012.7 |